User: anonymous   Login
Location: Unspecified
(0.0000°N, 0.0000°E)
Time: 09:18:47
(UTC+00:00)
Language:

COSMOS 2498 - Orbit

View from above orbital plane
View from above orbital plane
View from above satellite
View from above satellite

Ground track
Ground track

The orbit data is extracted from the following two-line orbital elements,

1 39763U 14028C   17268.88373222 +.00000010 +00000-0 +00000-0 0  9993
2 39763 082.4465 304.6033 0021222 168.9175 191.2381 12.42864671151760
Epoch (UTC): 25 September 2017 21:12:34
Eccentricity: 0.0021222
inclination: 82.4465°
perigee height: 1478 km
apogee height: 1511 km
right ascension of ascending node: 304.6033°
argument of perigee: 168.9175°
revolutions per day: 12.42864671
mean anomaly at epoch: 191.2381°
orbit number at epoch: 15176

The dashed part of the orbit path shows where the satellite is in the earth's shadow,  

DLR